This is the latest recevied weather packets stored in our database for station/object SQ9SMC-13. If no packets are shown the sender has not sent any weather packets the latest 10 day(s).
| Time | Temp. | Humidity | Pressure | Rain* | Wind** | Luminosity | Snow |
|---|---|---|---|---|---|---|---|
| 1777968903 | 24.44° C | 30% | 1011.8 hPa | 0 mm | - | 400 W/m² | - |
| 1777968602 | 23.89° C | 30% | 1011.8 hPa | 0 mm | - | 439 W/m² | - |
| 1777968304 | 23.89° C | 30% | 1011.9 hPa | 0 mm | - | 495 W/m² | - |
| 1777968007 | 23.89° C | 31% | 1012 hPa | 0 mm | - | 481 W/m² | - |
| 1777967704 | 23.89° C | 30% | 1012 hPa | 0 mm | - | 476 W/m² | - |
| 1777967403 | 23.33° C | 31% | 1011.9 hPa | 0 mm | - | 409 W/m² | - |
| 1777967102 | 23.89° C | 31% | 1012 hPa | 0 mm | - | 413 W/m² | - |
| 1777966803 | 23.33° C | 32% | 1011.8 hPa | 0 mm | - | 384 W/m² | - |
| 1777966503 | 22.78° C | 33% | 1012 hPa | 0 mm | - | 364 W/m² | - |
| 1777966203 | 23.33° C | 32% | 1012 hPa | 0 mm | - | 387 W/m² | - |
| 1777965904 | 23.33° C | 33% | 1012 hPa | 0 mm | - | 426 W/m² | - |
| 1777965604 | 23.33° C | 32% | 1012.2 hPa | 0 mm | - | 420 W/m² | - |
| 1777965302 | 23.33° C | 33% | 1012.2 hPa | 0 mm | - | 408 W/m² | - |
| 1777965003 | 22.22° C | 35% | 1012.3 hPa | 0 mm | - | 395 W/m² | - |
| 1777964703 | 22.22° C | 34% | 1012.3 hPa | 0 mm | - | 378 W/m² | - |
| 1777964403 | 22.22° C | 34% | 1012.4 hPa | 0 mm | - | 367 W/m² | - |
| 1777964106 | 22.22° C | 35% | 1012.3 hPa | 0 mm | - | 355 W/m² | - |
| 1777963802 | 22.22° C | 35% | 1012.4 hPa | 0 mm | - | 301 W/m² | - |
| 1777963503 | 22.22° C | 34% | 1012.4 hPa | 0 mm | - | 295 W/m² | - |
| 1777963203 | 21.67° C | 35% | 1012.3 hPa | 0 mm | - | 301 W/m² | - |
| 1777962903 | 21.67° C | 35% | 1012.4 hPa | 0 mm | - | 291 W/m² | - |
| 1777962604 | 21.67° C | 36% | 1012.6 hPa | 0 mm | - | 281 W/m² | - |
| 1777962303 | 21.67° C | 37% | 1012.5 hPa | 0 mm | - | 265 W/m² | - |
| 1777962003 | 21.11° C | 38% | 1012.6 hPa | 0 mm | - | 255 W/m² | - |
| 1777961703 | 20.56° C | 40% | 1012.7 hPa | 0 mm | - | 243 W/m² | - |
* Rain latest hour (hover to see other rain measurements)
** Current wind speed in m/s (hover to see current wind gust speed)